TDRS 7

Last updated on Fri Dec 19 2025 00:02:42 GMT+0000 (Coordinated Universal Time)

1 23613U 95035B 25352.50022095 -.00000222 00000+0 00000+0 0 9992 2 23613 13.4523 349.4311 0003756 64.3760 302.6205 1.00266625111444
UTC large
Height (km)
Speed (km/s)
/
Latitude / Longitude
Inclination (degrees)
Orbital Period (minutes)
Azimuth
Elevation
Range (km)
Doppler Factor

Next 0 passes for location: London (51.5072 / 0.1276)

Sorry there are no passes over London.